DW4915 Mazarete ES current weather conditions

sailwx.info

Wind from 117

Air temperature 24.4° C
Dewpoint 12.7° C

Last reported at 2016-Aug-23 20:51 UTC.
Time now 2016-Aug-23 21:11 UTC

Location: N 40°58' W 002°11'.
View on Google Maps.

See reports from other nearby stations

  
Tides and Currents Weather Stations Pressure Air Temp Water Temp Dewpoint Dewpoint Depression Visibility Wind Speed Wind Dir Waves Ship Positions
date/time (UTC)wind fromknots sea level pressurealtimeterstation pressurevisibilityair tempwater tempwave heightnotes
2016-Aug-23 20:51 117 24.4
2016-Aug-23 20:46 117 24.4
2016-Aug-23 20:41 118 25.0
2016-Aug-23 20:36 117 25.0
2016-Aug-23 20:31 117 25.0
2016-Aug-23 20:26 118 25.0
2016-Aug-23 20:21 117 25.0
2016-Aug-23 20:16 118 25.6
2016-Aug-23 20:11 117 25.6
2016-Aug-23 20:06 117 25.0
2016-Aug-23 20:01 117 25.0
2016-Aug-23 19:56 117 25.0
2016-Aug-23 19:51 118 25.0
2016-Aug-23 19:46 117 25.6
2016-Aug-23 19:41 117 25.6
2016-Aug-23 19:36 118 26.1
2016-Aug-23 19:26 118 26.1
2016-Aug-23 19:21 117 26.1
2016-Aug-23 19:16 117 26.1
2016-Aug-23 19:11 117 26.7
2016-Aug-23 19:06 117 26.7
2016-Aug-23 19:01 118 27.2
2016-Aug-23 18:56 117 27.2
2016-Aug-23 18:51 117 27.8
2016-Aug-23 18:46 117 27.8
2016-Aug-23 18:41 117 28.3
2016-Aug-23 18:36 117 28.3
2016-Aug-23 18:31 119 28.3
2016-Aug-23 18:26 117 28.9
2016-Aug-23 18:21 118 28.9
2016-Aug-23 18:16 117 28.9
2016-Aug-23 18:11 117 29.4
2016-Aug-23 18:06 117 29.4
2016-Aug-23 18:01 117 30.0
2016-Aug-23 17:56 118 30.0
2016-Aug-23 17:51 118 30.6
2016-Aug-23 17:46 118 30.6
2016-Aug-23 17:41 117 30.6
2016-Aug-23 17:36 117 30.6
2016-Aug-23 17:31 118 30.6
2016-Aug-23 17:26 117 30.0
2016-Aug-23 17:21 118 30.0
2016-Aug-23 17:16 118 30.0
2016-Aug-23 17:11 117 30.6
2016-Aug-23 17:06 117 30.6
2016-Aug-23 17:01 117 30.6
2016-Aug-23 16:56 118 31.1
2016-Aug-23 16:51 117 31.1
2016-Aug-23 16:46 117 31.7
2016-Aug-23 16:41 118 31.7
2016-Aug-23 16:36 118 32.2
2016-Aug-23 16:31 118 32.8
2016-Aug-23 16:26 119 33.3
2016-Aug-23 16:21 117 33.3
2016-Aug-23 16:16 133 33.3
2016-Aug-23 16:11 133 33.3
2016-Aug-23 16:06 133 33.3
2016-Aug-23 16:01 159 33.3
2016-Aug-23 15:56 160 33.3
2016-Aug-23 15:51 159 33.3
2016-Aug-23 15:46 160 33.3
2016-Aug-23 15:41 160 33.3
2016-Aug-23 15:36 159 33.3
2016-Aug-23 15:31 160 33.3
2016-Aug-23 15:26 160 32.8
2016-Aug-23 15:21 158 33.3
2016-Aug-23 15:16 158 33.3
2016-Aug-23 15:11 157 33.3
2016-Aug-23 15:06 160 33.3
2016-Aug-23 15:01 160 33.3
2016-Aug-23 14:56 159 33.3
2016-Aug-23 14:51 162 32.8
2016-Aug-23 14:46 161 33.3
2016-Aug-23 14:41 162 32.8
2016-Aug-23 14:36 162 33.3
2016-Aug-23 14:31 164 33.3
2016-Aug-23 14:26 162 32.8
2016-Aug-23 14:21 164 32.8
2016-Aug-23 14:16 184 32.2
2016-Aug-23 14:11 185 32.2
2016-Aug-23 14:06 185 32.2
2016-Aug-23 14:01 184 32.2
2016-Aug-23 13:56 193 32.2
2016-Aug-23 13:51 231 32.2
2016-Aug-23 13:46 231 32.2
2016-Aug-23 13:41 231 32.2
2016-Aug-23 13:36 248 31.7
2016-Aug-23 13:31 250 31.7
2016-Aug-23 13:26 249 31.7
2016-Aug-23 13:21 249 31.7
2016-Aug-23 13:16 248 31.7
2016-Aug-23 13:11 250 31.7
2016-Aug-23 13:06 249 31.1
2016-Aug-23 13:01 249 31.1
2016-Aug-23 12:56 216 32.2
2016-Aug-23 12:51 216 31.7
2016-Aug-23 12:46 211 31.7
2016-Aug-23 12:41 207 31.7
2016-Aug-23 12:36 211 31.1
2016-Aug-23 12:31 211 31.1
2016-Aug-23 12:26 246 30.6
2016-Aug-23 12:21 245 30.6
2016-Aug-23 12:16 246 31.1
2016-Aug-23 12:11 245 31.1
2016-Aug-23 12:06 246 30.6
2016-Aug-23 12:01 246 30.6
2016-Aug-23 11:56 246 30.0
2016-Aug-23 11:51 246 30.0
2016-Aug-23 11:46 245 30.0
2016-Aug-23 11:41 247 29.4
2016-Aug-23 11:36 246 29.4
2016-Aug-23 11:31 240 29.4
2016-Aug-23 11:26 258 29.4
2016-Aug-23 11:21 257 29.4
2016-Aug-23 11:16 258 28.9
2016-Aug-23 11:11 257 28.9
2016-Aug-23 11:06 258 28.3
2016-Aug-23 11:01 258 28.9
2016-Aug-23 10:56 258 28.9
2016-Aug-23 10:51 257 28.9
2016-Aug-23 10:46 258 28.3
2016-Aug-23 10:41 258 28.3
2016-Aug-23 10:36 258 27.8
2016-Aug-23 10:31 258 27.8
2016-Aug-23 10:26 258 27.2
2016-Aug-23 10:21 258 27.2
2016-Aug-23 10:16 258 27.2
2016-Aug-23 10:11 258 27.2
2016-Aug-23 10:06 258 26.7
2016-Aug-23 10:01 257 26.7
2016-Aug-23 09:56 257 26.7
2016-Aug-23 09:51 256 26.7
2016-Aug-23 09:46 226 26.7
2016-Aug-23 09:41 187 26.7
2016-Aug-23 09:36 188 26.1
2016-Aug-23 09:31 151 26.1
2016-Aug-23 09:26 151 26.1
2016-Aug-23 09:21 151 26.1
2016-Aug-23 09:16 150 25.6
2016-Aug-23 09:11 151 25.6
2016-Aug-23 09:06 151 25.0
2016-Aug-23 09:01 151 25.0
2016-Aug-23 08:56 151 24.4
2016-Aug-23 08:51 151 24.4
2016-Aug-23 08:46 151 23.9
2016-Aug-23 08:41 150 23.9
2016-Aug-23 08:36 150 23.9
2016-Aug-23 08:31 145 23.9
2016-Aug-23 08:26 145 23.3
2016-Aug-23 08:21 144 23.3
2016-Aug-23 08:16 143 23.3
2016-Aug-23 08:11 142 22.8
2016-Aug-23 08:06 107 22.8
2016-Aug-23 08:01 107 22.8
2016-Aug-23 07:56 107 22.8
2016-Aug-23 07:51 107 22.2
2016-Aug-23 07:46 106 22.2
2016-Aug-23 07:41 107 22.2
2016-Aug-23 07:36 106 21.7
2016-Aug-23 07:31 107 21.7
2016-Aug-23 07:26 107 21.1
2016-Aug-23 07:21 107 20.6
2016-Aug-23 07:16 106 19.4
2016-Aug-23 07:11 107 18.9
2016-Aug-23 07:06 107 17.8
2016-Aug-23 07:01 106 17.2
2016-Aug-23 06:56 107 16.1
2016-Aug-23 06:51 106 15.6
2016-Aug-23 06:46 107 15.0
2016-Aug-23 06:41 107 14.4
2016-Aug-23 06:36 107 13.3
2016-Aug-23 06:31 107 12.8
2016-Aug-23 06:26 107 12.8
2016-Aug-23 06:21 107 12.2
2016-Aug-23 06:16 107 11.7
2016-Aug-23 06:11 107 11.7
2016-Aug-23 06:06 107 11.7
2016-Aug-23 06:01 107 11.7
2016-Aug-23 05:56 106 11.7
2016-Aug-23 05:51 106 11.1
2016-Aug-23 05:46 108 11.1
2016-Aug-23 05:41 106 11.1
2016-Aug-23 05:36 106 11.1
2016-Aug-23 05:31 107 11.1
2016-Aug-23 05:26 106 11.1
2016-Aug-23 05:21 106 11.1
2016-Aug-23 05:16 106 11.7
2016-Aug-23 05:11 106 11.7
2016-Aug-23 05:06 106 11.7
2016-Aug-23 05:01 106 11.7
2016-Aug-23 04:56 107 11.7
2016-Aug-23 04:51 106 11.7
2016-Aug-23 04:46 106 11.7
2016-Aug-23 04:41 106 11.7
2016-Aug-23 04:36 107 11.7
2016-Aug-23 04:31 106 11.7
2016-Aug-23 04:26 106 11.7
2016-Aug-23 04:21 108 11.7
2016-Aug-23 04:16 106 11.7
2016-Aug-23 04:11 106 11.7
2016-Aug-23 04:06 106 11.7
2016-Aug-23 04:01 107 12.2
2016-Aug-23 03:56 106 12.2
2016-Aug-23 03:51 107 12.2
2016-Aug-23 03:46 106 12.2
2016-Aug-23 03:41 106 12.2
2016-Aug-23 03:36 106 12.2
2016-Aug-23 03:31 106 12.2
2016-Aug-23 03:26 106 12.2
2016-Aug-23 03:21 106 12.2
2016-Aug-23 03:16 106 12.2
2016-Aug-23 03:11 107 12.8
2016-Aug-23 03:06 107 12.8
2016-Aug-23 03:01 106 12.8
2016-Aug-23 02:56 106 12.8
2016-Aug-23 02:51 107 12.8
2016-Aug-23 02:46 107 12.8
2016-Aug-23 02:41 106 12.8
2016-Aug-23 02:36 106 12.8
2016-Aug-23 02:31 106 12.8
2016-Aug-23 02:26 106 12.8
2016-Aug-23 02:21 107 13.3
2016-Aug-23 02:16 107 13.3
2016-Aug-23 02:11 107 13.3
2016-Aug-23 02:06 107 13.3
2016-Aug-23 02:01 107 13.3
2016-Aug-23 01:56 106 13.3
2016-Aug-23 01:51 106 13.3
2016-Aug-23 01:46 106 13.3
2016-Aug-23 01:41 105 13.9
2016-Aug-23 01:36 106 13.9
2016-Aug-23 01:31 107 13.9
2016-Aug-23 01:26 106 13.9
2016-Aug-23 01:21 106 13.9
2016-Aug-23 01:16 107 13.9
2016-Aug-23 01:11 106 13.9
2016-Aug-23 01:06 106 13.9
2016-Aug-23 01:01 107 13.9
2016-Aug-23 00:56 107 14.4
2016-Aug-23 00:51 106 14.4
2016-Aug-23 00:46 107 14.4
2016-Aug-23 00:41 106 15.0
2016-Aug-23 00:36 107 15.0
2016-Aug-23 00:31 106 15.0
2016-Aug-23 00:26 106 15.6
2016-Aug-23 00:21 106 15.6
2016-Aug-23 00:16 106 15.6
2016-Aug-23 00:11 108 16.1
2016-Aug-23 00:06 106 16.1
2016-Aug-23 00:01 108 16.7
2016-Aug-22 23:56 106 16.7
2016-Aug-22 23:51 107 17.2
2016-Aug-22 23:46 106 17.2
2016-Aug-22 23:41 106 17.8
2016-Aug-22 23:36 106 18.3
2016-Aug-22 23:31 106 18.9
2016-Aug-22 23:26 106 19.4
2016-Aug-22 23:21 107 20.0
2016-Aug-22 23:16 107 20.6
2016-Aug-22 23:11 106 20.6
2016-Aug-22 23:06 108 21.1
2016-Aug-22 23:01 107 21.1
2016-Aug-22 22:56 107 21.1
2016-Aug-22 22:51 106 21.7
2016-Aug-22 22:46 106 21.1
2016-Aug-22 22:41 106 21.7
2016-Aug-22 22:36 106 22.2
2016-Aug-22 22:31 108 21.7
2016-Aug-22 22:26 094 21.1
2016-Aug-22 22:21 086 20.0
2016-Aug-22 22:16 087 19.4
2016-Aug-22 22:11 086 20.0
2016-Aug-22 22:06 086 20.6
2016-Aug-22 22:01 087 21.1
2016-Aug-22 21:56 086 21.7
2016-Aug-22 21:51 086 21.7
2016-Aug-22 21:46 086 22.2
2016-Aug-22 21:41 087 22.8
2016-Aug-22 21:36 087 22.8
2016-Aug-22 21:31 088 22.8
2016-Aug-22 21:26 086 23.3
2016-Aug-22 21:21 086 23.3
2016-Aug-22 21:16 087 23.3
2016-Aug-22 21:11 081 23.3
2016-Aug-22 21:06 079 23.3
2016-Aug-22 21:01 083 23.9
2016-Aug-22 20:56 078 23.9
2016-Aug-22 20:51 079 23.9
2016-Aug-22 20:46 080 23.9
2016-Aug-22 20:41 083 23.9
2016-Aug-22 20:36 083 23.9
2016-Aug-22 20:31 083 23.9
2016-Aug-22 20:26 083 23.9
2016-Aug-22 20:21 084 24.4
2016-Aug-22 20:16 084 24.4
2016-Aug-22 20:11 085 23.9
2016-Aug-22 20:06 084 23.9
2016-Aug-22 20:01 084 24.4
2016-Aug-22 19:56 083 24.4
2016-Aug-22 19:51 083 24.4
2016-Aug-22 19:46 083 25.0
2016-Aug-22 19:41 084 25.0
2016-Aug-22 19:36 083 25.0
2016-Aug-22 19:31 084 25.6
2016-Aug-22 19:26 084 25.6
2016-Aug-22 19:21 083 25.6
2016-Aug-22 19:16 083 25.6
2016-Aug-22 19:11 084 26.1
2016-Aug-22 19:06 084 26.1
2016-Aug-22 19:01 084 26.7
2016-Aug-22 18:56 084 26.7
2016-Aug-22 18:51 083 27.2
2016-Aug-22 18:46 084 27.8
2016-Aug-22 18:41 083 27.8
2016-Aug-22 18:36 084 28.3
2016-Aug-22 18:31 084 28.3
2016-Aug-22 18:26 084 28.9
2016-Aug-22 18:21 084 28.9
2016-Aug-22 18:16 092 29.4
2016-Aug-22 18:11 085 29.4
2016-Aug-22 18:06 086 30.0
2016-Aug-22 18:01 085 30.0
2016-Aug-22 17:56 085 30.0
2016-Aug-22 17:51 085 30.6
2016-Aug-22 17:46 085 30.6
2016-Aug-22 17:41 087 30.6
2016-Aug-22 17:36 092 31.1
2016-Aug-22 17:31 246 31.1
2016-Aug-22 17:26 246 31.7
2016-Aug-22 17:21 246 31.7
2016-Aug-22 17:16 246 31.7
2016-Aug-22 17:11 246 31.7
2016-Aug-22 17:06 246 32.2
2016-Aug-22 17:01 246 32.2
2016-Aug-22 16:56 246 32.2
2016-Aug-22 16:51 246 32.2
2016-Aug-22 16:46 248 31.7
2016-Aug-22 16:41 246 32.2
2016-Aug-22 16:36 246 32.2
2016-Aug-22 16:31 246 32.2
2016-Aug-22 16:26 246 32.2
2016-Aug-22 16:21 240 32.2
2016-Aug-22 16:16 246 32.2
2016-Aug-22 16:11 246 32.2
2016-Aug-22 16:06 247 32.8
2016-Aug-22 16:01 246 32.8
2016-Aug-22 15:56 238 32.8
2016-Aug-22 15:51 235 32.2
2016-Aug-22 15:46 231 32.2
2016-Aug-22 15:41 231 32.2
2016-Aug-22 15:36 231 31.7
2016-Aug-22 15:31 246 32.2
2016-Aug-22 15:26 007 32.2
2016-Aug-22 15:21 007 32.2
2016-Aug-22 15:16 037 32.2
2016-Aug-22 15:11 029 31.7
2016-Aug-22 15:06 263 32.2
2016-Aug-22 15:01 262 32.2
2016-Aug-22 14:56 262 31.7
2016-Aug-22 14:51 248 32.2
2016-Aug-22 14:46 245 32.2
2016-Aug-22 14:41 162 32.2
2016-Aug-22 14:36 280 31.7
2016-Aug-22 14:31 280 31.7
2016-Aug-22 14:26 173 31.1
2016-Aug-22 14:21 169 31.1
2016-Aug-22 14:16 169 31.1
2016-Aug-22 14:11 169 31.1
2016-Aug-22 14:06 164 31.1
2016-Aug-22 14:01 263 31.1
2016-Aug-22 13:56 253 31.1
2016-Aug-22 13:51 247 31.1
2016-Aug-22 13:46 247 31.1
2016-Aug-22 13:41 269 30.6
2016-Aug-22 13:36 271 31.1
2016-Aug-22 13:31 269 31.1
2016-Aug-22 13:26 269 31.1
2016-Aug-22 13:21 269 31.1
2016-Aug-22 13:16 269 31.1
2016-Aug-22 13:11 269 31.1
2016-Aug-22 13:06 269 30.6
2016-Aug-22 13:01 250 30.6
2016-Aug-22 12:56 250 30.0
2016-Aug-22 12:51 250 30.0
2016-Aug-22 12:46 250 30.0
2016-Aug-22 12:41 250 30.0
2016-Aug-22 12:36 250 30.0
2016-Aug-22 12:31 250 30.0
2016-Aug-22 12:26 250 29.4
2016-Aug-22 12:21 250 29.4
2016-Aug-22 12:16 251 28.9
2016-Aug-22 12:11 250 28.9
2016-Aug-22 12:06 250 28.9
2016-Aug-22 12:01 252 28.3
2016-Aug-22 11:56 250 28.3
2016-Aug-22 11:51 250 27.8
2016-Aug-22 11:46 250 28.3
2016-Aug-22 11:41 250 27.8
2016-Aug-22 11:36 245 27.8
2016-Aug-22 11:31 216 27.8
2016-Aug-22 11:26 216 27.8
2016-Aug-22 11:21 216 27.8
2016-Aug-22 11:16 216 27.2
2016-Aug-22 11:11 216 27.2
2016-Aug-22 11:06 216 27.2
2016-Aug-22 11:01 216 27.2
2016-Aug-22 10:56 211 27.2
2016-Aug-22 10:51 211 26.7
2016-Aug-22 10:46 207 27.2
2016-Aug-22 10:41 211 26.7
2016-Aug-22 10:36 211 26.1
2016-Aug-22 10:31 211 26.1
2016-Aug-22 10:26 197 26.1
2016-Aug-22 10:21 196 25.6
2016-Aug-22 10:16 196 25.6
2016-Aug-22 10:11 196 25.0
2016-Aug-22 10:06 196 25.0
2016-Aug-22 10:01 196 25.0
2016-Aug-22 09:56 193 24.4
2016-Aug-22 09:51 194 24.4
2016-Aug-22 09:46 194 23.9
2016-Aug-22 05:11 075 8.9
2016-Aug-22 05:06 075 8.9
2016-Aug-22 05:01 076 8.9
2016-Aug-22 04:56 075 8.9
2016-Aug-22 04:51 075 8.9
2016-Aug-22 04:46 075 8.9
2016-Aug-22 04:41 075 9.4
2016-Aug-22 04:36 075 9.4
2016-Aug-22 04:31 075 9.4
2016-Aug-22 04:26 076 9.4
2016-Aug-22 04:21 075 9.4
2016-Aug-22 04:16 075 9.4
2016-Aug-22 04:11 075 9.4
2016-Aug-22 04:06 076 9.4
2016-Aug-22 04:01 075 9.4
2016-Aug-22 03:56 075 9.4
2016-Aug-22 03:51 075 9.4
2016-Aug-22 03:46 075 9.4
2016-Aug-22 03:41 076 9.4
2016-Aug-22 03:36 075 9.4
2016-Aug-22 03:31 075 10.0
2016-Aug-22 03:26 075 10.0
2016-Aug-22 03:21 075 10.0
2016-Aug-22 03:16 075 10.0
2016-Aug-22 03:11 075 10.0
2016-Aug-22 03:06 075 10.6
2016-Aug-22 03:01 075 10.6
2016-Aug-22 02:56 075 10.6
2016-Aug-22 02:51 076 11.1
2016-Aug-22 02:46 075 11.1
2016-Aug-22 02:41 075 11.7
2016-Aug-22 02:36 075 11.7
2016-Aug-22 02:31 076 12.2
2016-Aug-22 02:26 075 12.2
2016-Aug-22 02:21 075 12.8
2016-Aug-22 02:16 076 12.8
2016-Aug-22 02:11 075 13.3
2016-Aug-22 02:06 075 13.3
2016-Aug-22 02:01 075 13.3
2016-Aug-22 01:56 075 13.3
2016-Aug-22 01:51 075 13.3
2016-Aug-22 01:46 075 13.3
2016-Aug-22 01:41 075 13.3
2016-Aug-22 01:36 076 13.3
2016-Aug-22 01:31 075 12.8
2016-Aug-22 01:26 075 12.8
2016-Aug-22 01:21 075 12.8
2016-Aug-22 01:16 075 12.2
2016-Aug-22 01:11 075 12.2
2016-Aug-22 01:06 075 12.2
2016-Aug-22 01:01 077 12.2
2016-Aug-22 00:56 075 12.2
2016-Aug-22 00:51 075 12.2
2016-Aug-22 00:46 075 12.2
2016-Aug-22 00:41 075 12.8
2016-Aug-22 00:36 075 12.8
2016-Aug-22 00:31 075 12.8
2016-Aug-22 00:26 075 12.2
2016-Aug-22 00:21 075 12.2
2016-Aug-22 00:16 075 12.2
2016-Aug-22 00:11 075 12.2
2016-Aug-22 00:06 075 12.8
2016-Aug-22 00:01 075 12.8
2016-Aug-21 23:56 075 13.3
2016-Aug-21 23:51 075 13.3
2016-Aug-21 23:46 075 13.9
2016-Aug-21 23:41 075 13.9
2016-Aug-21 23:36 075 13.9
2016-Aug-21 23:31 075 13.9
2016-Aug-21 23:26 075 13.3
2016-Aug-21 23:21 075 13.9
2016-Aug-21 23:16 076 13.9
2016-Aug-21 23:11 076 14.4
2016-Aug-21 23:06 075 14.4
2016-Aug-21 23:01 075 13.9
2016-Aug-21 22:56 076 13.9
2016-Aug-21 22:51 075 14.4
2016-Aug-21 22:46 075 14.4
2016-Aug-21 22:41 075 13.9
2016-Aug-21 22:36 075 13.9
2016-Aug-21 22:31 076 13.9
2016-Aug-21 22:26 075 13.9
2016-Aug-21 22:21 075 14.4
2016-Aug-21 22:16 075 15.0
2016-Aug-21 22:11 075 15.0
2016-Aug-21 22:06 075 15.0
2016-Aug-21 22:01 075 15.6
2016-Aug-21 21:56 075 15.6
2016-Aug-21 21:51 075 15.6
2016-Aug-21 21:46 075 15.6
2016-Aug-21 21:41 075 15.6
2016-Aug-21 21:36 075 15.6
2016-Aug-21 21:31 075 15.6
2016-Aug-21 21:26 076 15.6
2016-Aug-21 21:21 075 16.1
2016-Aug-21 21:16 075 16.7
2016-Aug-21 21:11 075 16.7
2016-Aug-21 21:06 075 17.2
2016-Aug-21 21:01 075 17.8